Location: Charbonni�res
(45.9952°N, 2.9982°E)
Time: 17:32:54
(UTC+00:00)

ATLAS CENTAUR R/B - Pass Details

Date: 29 November 2020
Orbit: 477 x 668 km, 64.7° (Epoch: 12 January)

Event Time Altitude Azimuth Distance (km) Brightness Sun altitude
Exits shadow 04:32:33 31° 45° (NE) 905 2.7 -26.2°
Drops below altitude 10° 04:36:02 10° 109° (ESE) 1,747 4.8 -25.6°
Sets 04:38:26 0° 120° (ESE) 2,664 5.9 -25.2°
